Weather History for Arctic Village, AK

Change the Weather History Date:

Saturday, December 14, 2013

  Actual Average Record
Temperature  
Mean Temperature -19 °F -  
Max Temperature -11 °F -3 °F 26 °F (1962)
Min Temperature -27 °F -23 °F -52 °F (1971)
Degree Days  
Heating Degree Days 84    
Moisture  
Dew Point -24 °F    
Average Humidity 66    
Maximum Humidity 100    
Minimum Humidity 41    
Precipitation  
Precipitation 0.00 in - - ()
Sea Level Pressure  
Sea Level Pressure 29.31 in    
Wind  
Wind Speed 3 mph (NE)    
Max Wind Speed 9 mph    
Max Gust Speed -    
Visibility 10 miles    
Events      
Averages and records for this station are not official NWS values.
T = Trace of Precipitation, MM = Missing Value Source: NWS Daily Summary

Daily Weather History Graph

Daily Weather History Graph

Search for Another Location

Airport:

Trip Planner

Search our weather history database for the weather conditions in past years. The results will help you decide how hot, cold, wet, or windy it might be!

Date:

Astronomy

Dec. 14, 2013 Rise Set
Actual Time 12:04 PM AKST 1:09 PM AKST
Civil Twilight 9:56 AM AKST 3:17 PM AKST
Nautical Twilight 8:27 AM AKST 4:47 PM AKST
Astronomical Twilight 7:15 AM AKST 5:58 PM AKST
Moon 1:16 PM AKST (12/14) 7:51 AM AKST (12/14)
Length of Visible Light 5h 21m
Length of Day
1h 04m
Waxing Gibbous, 94% of the Moon is Illuminated
Dec 14
Waxing Gibbous
Dec 17
Full
Dec 25
Last Quarter
Jan 1
New
Jan 7
First Quarter

Hourly Weather History & Observations

Time (AKST) Temp. Windchill Dew Point Humidity Pressure Visibility Wind Dir Wind Speed Gust Speed Precip Events Conditions
12:16 AM -20.2 °F -30.9 °F - N/A% 29.46 in 10.0 mi East 3.5 mph - N/A   Clear
12:36 AM -20.2 °F -33.5 °F - N/A% 29.44 in 10.0 mi East 4.6 mph - N/A   Clear
12:56 AM -20.2 °F -33.5 °F - N/A% 29.43 in 10.0 mi East 4.6 mph - N/A   Clear
1:16 AM -22.0 °F -35.6 °F - N/A% 29.42 in 10.0 mi East 4.6 mph - N/A   Clear
1:36 AM -20.2 °F -35.5 °F - N/A% 29.43 in 10.0 mi ENE 5.8 mph - N/A   Clear
1:56 AM -20.2 °F -35.5 °F -25.6 °F 76% 29.42 in 10.0 mi East 5.8 mph - N/A   Clear
2:16 AM -20.2 °F -40.1 °F - N/A% 29.41 in 10.0 mi ENE 9.2 mph - N/A   Clear
2:36 AM -20.2 °F - -20.2 °F 100% 29.41 in 10.0 mi Calm Calm - N/A   Clear
2:56 AM -20.2 °F -38.8 °F - N/A% 29.40 in 10.0 mi NE 8.1 mph - N/A   Clear
3:16 AM -18.4 °F -35.1 °F - N/A% 29.38 in 10.0 mi ENE 6.9 mph - N/A   Clear
3:36 AM -18.4 °F -37.9 °F -29.2 °F 58% 29.37 in 10.0 mi ENE 9.2 mph - N/A   Clear
3:56 AM -20.2 °F -35.5 °F - N/A% 29.36 in 10.0 mi NE 5.8 mph - N/A   Clear
4:16 AM -20.2 °F -35.5 °F - N/A% 29.35 in 10.0 mi East 5.8 mph - N/A   Clear
4:36 AM -20.2 °F -37.3 °F -29.2 °F 63% 29.35 in 10.0 mi ENE 6.9 mph - N/A   Clear
4:56 AM -20.2 °F -33.5 °F - N/A% 29.34 in 10.0 mi NE 4.6 mph - N/A   Clear
5:16 AM -18.4 °F -33.4 °F -18.4 °F 100% 29.34 in 10.0 mi ENE 5.8 mph - N/A   Clear
5:36 AM -20.2 °F - - N/A% 29.34 in 10.0 mi Calm Calm - N/A   Clear
5:56 AM -22.0 °F - - N/A% 29.33 in 10.0 mi Calm Calm - N/A   Clear
6:16 AM -22.0 °F - - N/A% 29.32 in 10.0 mi Calm Calm - N/A   Clear
6:36 AM -23.8 °F - - N/A% 29.31 in 10.0 mi Calm Calm - N/A   Clear
6:56 AM -25.6 °F - - N/A% 29.31 in 10.0 mi Calm Calm - N/A   Clear
7:16 AM -23.8 °F -43.2 °F - N/A% 29.29 in 10.0 mi ENE 8.1 mph - N/A   Clear
7:36 AM -20.2 °F -35.5 °F - N/A% 29.29 in 10.0 mi NE 5.8 mph - N/A   Clear
7:56 AM -22.0 °F - - N/A% 29.29 in 10.0 mi Calm Calm - N/A   Clear
8:16 AM -25.6 °F - - N/A% 29.29 in 10.0 mi Calm Calm - N/A   Clear
8:36 AM -25.6 °F - - N/A% 29.29 in 10.0 mi Calm Calm - N/A   Clear
8:56 AM -22.0 °F - - N/A% 29.29 in 10.0 mi Calm Calm - N/A   Clear
9:16 AM -27.4 °F - - N/A% 29.29 in 10.0 mi Calm Calm - N/A   Clear
9:36 AM -27.4 °F - - N/A% 29.29 in 10.0 mi Calm Calm - N/A   Mostly Cloudy
9:56 AM -25.6 °F - - N/A% 29.29 in 10.0 mi Calm Calm - N/A   Scattered Clouds
10:16 AM -23.8 °F - - N/A% 29.29 in 10.0 mi Calm Calm - N/A   Clear
10:36 AM -25.6 °F - - N/A% 29.29 in 10.0 mi Calm Calm - N/A   Clear
10:56 AM -27.4 °F - - N/A% 29.29 in 10.0 mi Calm Calm - N/A   Mostly Cloudy
11:16 AM -25.6 °F - - N/A% 29.29 in 10.0 mi Calm Calm - N/A   Scattered Clouds
11:36 AM -22.0 °F - - N/A% 29.29 in 5.0 mi Calm Calm - N/A   Clear
11:56 AM -27.4 °F - - N/A% 29.29 in 10.0 mi Calm Calm - N/A   Clear
12:16 PM -25.6 °F - - N/A% 29.29 in 10.0 mi Calm Calm - N/A   Clear
12:36 PM -20.2 °F - - N/A% 29.29 in 10.0 mi Calm Calm - N/A   Scattered Clouds
12:56 PM -22.0 °F - - N/A% 29.28 in 10.0 mi Calm Calm - N/A   Clear
1:16 PM -25.6 °F - - N/A% 29.27 in 10.0 mi Calm Calm - N/A   Clear
1:36 PM -25.6 °F - - N/A% 29.27 in 10.0 mi Calm Calm - N/A   Clear
1:56 PM -25.6 °F - - N/A% 29.27 in 10.0 mi Calm Calm - N/A   Clear
2:16 PM -23.8 °F - - N/A% 29.26 in 10.0 mi Calm Calm - N/A   Partly Cloudy
2:36 PM -22.0 °F - - N/A% 29.26 in 10.0 mi Calm Calm - N/A   Partly Cloudy
2:56 PM -23.8 °F - -27.4 °F 83% 29.26 in 10.0 mi Calm Calm - N/A   Clear
3:16 PM -22.0 °F - - N/A% 29.26 in 10.0 mi Calm Calm - N/A   Clear
3:36 PM -20.2 °F - -25.6 °F 76% 29.26 in 10.0 mi Calm Calm - N/A   Clear
3:56 PM -18.4 °F - - N/A% 29.26 in 10.0 mi Calm Calm - N/A   Clear
4:16 PM -23.8 °F - - N/A% 29.26 in 10.0 mi Calm Calm - N/A   Scattered Clouds
4:36 PM -22.0 °F - -23.8 °F 91% 29.26 in 10.0 mi Calm Calm - N/A   Partly Cloudy
4:56 PM -18.4 °F - - N/A% 29.26 in 10.0 mi Calm Calm - N/A   Mostly Cloudy
5:16 PM -16.6 °F -26.8 °F - N/A% 29.26 in 10.0 mi WNW 3.5 mph - N/A   Overcast
5:36 PM -16.6 °F - - N/A% 29.25 in 10.0 mi Calm Calm - N/A   Overcast
5:56 PM -14.8 °F - - N/A% 29.26 in 10.0 mi Calm Calm - N/A   Overcast
6:16 PM -16.6 °F - - N/A% 29.26 in 10.0 mi Calm Calm - N/A   Overcast
6:36 PM -16.6 °F - - N/A% 29.26 in 10.0 mi Calm Calm - N/A   Scattered Clouds
6:56 PM -11.2 °F - - N/A% 29.26 in 10.0 mi Calm Calm - N/A   Clear
7:16 PM -16.6 °F - - N/A% 29.27 in 10.0 mi Calm Calm - N/A   Clear
7:36 PM -16.6 °F - - N/A% 29.28 in 10.0 mi Calm Calm - N/A   Partly Cloudy
7:56 PM -14.8 °F - - N/A% 29.28 in 10.0 mi Calm Calm - N/A   Clear
8:16 PM -11.2 °F - -29.2 °F 41% 29.28 in 10.0 mi Calm Calm - N/A   Mostly Cloudy
8:36 PM -14.8 °F - - N/A% 29.29 in 10.0 mi Calm Calm - N/A   Overcast
8:56 PM -13.0 °F - -25.6 °F 53% 29.29 in 10.0 mi Calm Calm - N/A   Overcast
9:16 PM -13.0 °F -25.1 °F -25.6 °F 53% 29.29 in 10.0 mi NNE 4.6 mph - N/A   Overcast
9:36 PM -11.2 °F -20.6 °F -25.6 °F 49% 29.30 in 10.0 mi NNE 3.5 mph - N/A   Overcast
9:56 PM -11.2 °F -20.6 °F -23.8 °F 54% 29.31 in 10.0 mi NNW 3.5 mph - N/A   Overcast
10:16 PM -11.2 °F -24.8 °F -23.8 °F 54% 29.31 in 10.0 mi North 5.8 mph - N/A   Overcast
10:36 PM -11.2 °F - -27.4 °F 45% 29.32 in 10.0 mi Calm Calm - N/A   Overcast
10:56 PM -11.2 °F - -18.4 °F 70% 29.33 in 10.0 mi Calm Calm - N/A   Overcast
11:16 PM -11.2 °F -20.6 °F -23.8 °F 54% 29.33 in 10.0 mi NNE 3.5 mph - N/A   Scattered Clouds
11:36 PM -11.2 °F - -20.2 °F 64% 29.34 in 10.0 mi Calm Calm - N/A   Partly Cloudy
11:56 PM -13.0 °F - -22.0 °F 64% 29.34 in 10.0 mi Calm Calm - N/A   Mostly Cloudy